This demonstration page uses our WeatherBlox Daily Observations layout. Learn more.

Left ArrowRight Arrow

40.92501, -98.34201

Hourly Observations for August 6, 2020

Temp ( °F °C ) Dew Point ( °F °C ) Humidity (%) Winds ( mph kmh ) Pressure ( in mb ) Visibility ( mi km ) Precip ( " mm )
12:53 am 00:53 Clear 69 20.6 63 17.2 81 81 SSE 8 13 29.96 1014 10 16 0.00 0.00
1:53 am 01:53 Partly Cloudy 69 20.6 63 17.2 81 81 S 12 19 29.94 1014 10 16 0.00 0.00
2:53 am 02:53 Mostly Cloudy 70 21.1 65 18.3 84 84 S 8 13 29.92 1013 10 16 0.00 0.00
3:53 am 03:53 Mostly Clear 70 21.1 65 18.3 84 84 SSE 12 19 29.89 1012 10 16 0.00 0.00
4:53 am 04:53 Clear 69 20.6 64 17.8 84 84 S 12 19 29.90 1012 10 16 0.00 0.00
5:53 am 05:53 Clear 67 19.4 63 17.2 87 87 SSW 7 11 29.91 1013 10 16 0.00 0.00
6:53 am 06:53 Sunny 67 19.4 63 17.2 87 87 S 10 17 29.93 1014 7 11 0.00 0.00
7:53 am 07:53 Sunny 69 20.6 65 18.3 87 87 SSW 10 17 29.95 1014 8 13 0.00 0.00
8:53 am 08:53 Sunny 75 23.9 65 18.3 71 71 SW 5 7 29.93 1013 10 16 0.00 0.00
9:53 am 09:53 Sunny 77 25 66 18.9 69 69 VRB 6 9 29.94 1014 10 16 0.00 0.00
10:53 am 10:53 Sunny 80 26.7 67 19.4 64 64 S 9 15 29.95 1014 10 16 0.00 0.00
11:53 am 11:53 Sunny 82 27.8 68 20 63 63 SE 7 11 29.95 1014 10 16 0.00 0.00
12:53 pm 12:53 Sunny 85 29.4 69 20.6 59 59 SSE 9 15 29.92 1013 10 16 0.00 0.00
1:53 pm 13:53 Sunny 85 29.4 69 20.6 59 59 S 9 15 29.91 1013 10 16 0.00 0.00
2:53 pm 14:53 Sunny 88 31.1 70 21.1 55 55 S 9 15 29.89 1012 10 16 0.00 0.00
3:53 pm 15:53 Mostly Sunny 88 31.1 71 21.7 57 57 S 13 20 29.88 1012 10 16 0.00 0.00
4:53 pm 16:53 Mostly Sunny 88 31.1 70 21.1 55 55 S 10 17 29.87 1012 10 16 0.00 0.00
5:53 pm 17:53 Mostly Sunny 86 30 71 21.7 61 61 SSE 15 24 29.88 1012 10 16 0.00 0.00
6:53 pm 18:53 Sunny 85 29.4 71 21.7 63 63 SSE 13 20 29.88 1012 10 16 0.00 0.00
7:53 pm 19:53 Sunny 82 27.8 71 21.7 69 69 SSE 12 19 29.88 1012 10 16 0.00 0.00
8:53 pm 20:53 Clear 78 25.6 70 21.1 76 76 SSE 10 17 29.89 1012 10 16 0.00 0.00
9:53 pm 21:53 Clear 76 24.4 68 20 77 77 SSE 8 13 29.91 1013 10 16 0.00 0.00
10:53 pm 22:53 Clear 75 23.9 69 20.6 82 82 SSE 10 17 29.91 1013 10 16 0.00 0.00
11:53 pm 23:53 Clear 75 23.9 70 21.1 84 84 S 13 20 29.90 1012 8 13 0.00 0.00

Powered by AerisWeather